Date,Time,atemp,precip,wspeed,wdir,
ADT,ADT,degC,.01/in,mph,deg,
1/1/2006,0:00,-23.0,,0.2,13,frozen WSPD
1/1/2006,1:00,-23.0,,0.2,18,frozen WSPD
1/1/2006,2:00,-23.1,,0.2,0,frozen WSPD
1/1/2006,3:00,-23.4,,0.2,22,frozen WSPD
1/1/2006,4:00,-22.9,,0.2,346,frozen WSPD
1/1/2006,5:00,-22.6,,0.2,0,frozen WSPD
1/1/2006,6:00,-22.5,,0.2,62,frozen WSPD
1/1/2006,7:00,-22.3,,0.2,20,frozen WSPD
1/1/2006,8:00,-22.2,,0.2,342,frozen WSPD
1/1/2006,9:00,-21.9,,0.2,313,frozen WSPD
1/1/2006,10:00,-21.1,,0.2,304,frozen WSPD
1/1/2006,11:00,-20.7,,0.2,221,frozen WSPD
1/1/2006,12:00,-19.6,,0.2,308,frozen WSPD
1/1/2006,13:00,-18.5,,0.2,327,frozen WSPD
1/1/2006,14:00,-18.0,,0.2,332,frozen WSPD
1/1/2006,15:00,-17.4,,0.2,2,frozen WSPD
1/1/2006,16:00,-17.2,,0.2,357,frozen WSPD
1/1/2006,17:00,-17.3,,0.2,26,frozen WSPD
1/1/2006,18:00,-17.3,,0.2,1,frozen WSPD
1/1/2006,19:00,-17.3,,0.2,359,frozen WSPD
1/1/2006,20:00,-17.5,,0.2,329,frozen WSPD
1/1/2006,21:00,-17.6,,0.2,270,frozen WSPD
1/1/2006,22:00,-17.7,,0.2,328,frozen WSPD
1/1/2006,23:00,-17.8,,0.2,317,frozen WSPD
1/2/2006,0:00,-17.9,,0.2,321,frozen WSPD
1/2/2006,1:00,-18.0,,0.2,261,frozen WSPD
1/2/2006,2:00,-18.1,,0.2,350,frozen WSPD
1/2/2006,3:00,-18.2,,0.2,8,frozen WSPD
1/2/2006,4:00,-18.3,,0.2,0,frozen WSPD
1/2/2006,5:00,-18.2,,0.2,311,frozen WSPD
1/2/2006,6:00,-18.2,,0.2,334,frozen WSPD
1/2/2006,7:00,-18.3,,0.2,340,frozen WSPD
1/2/2006,8:00,-18.5,,0.2,4,frozen WSPD
1/2/2006,9:00,-18.4,,0.2,337,frozen WSPD
1/2/2006,10:00,-18.5,,0.2,360,frozen WSPD
1/2/2006,11:00,-18.5,,0.2,337,frozen WSPD
1/2/2006,12:00,-18.3,,0.2,311,frozen WSPD
1/2/2006,13:00,-18.2,,0.2,310,frozen WSPD
1/2/2006,14:00,-18.2,,0.2,195,frozen WSPD
1/2/2006,15:00,-18.2,,0.2,262,frozen WSPD
1/2/2006,16:00,-18.4,,0.2,205,frozen WSPD
1/2/2006,17:00,-18.6,,0.2,181,frozen WSPD
1/2/2006,18:00,-18.7,,0.2,212,frozen WSPD
1/2/2006,19:00,-18.7,,0.2,216,frozen WSPD
1/2/2006,20:00,-18.8,,0.2,222,frozen WSPD
1/2/2006,21:00,-18.7,,0.2,220,frozen WSPD
1/2/2006,22:00,-18.6,,0.2,226,frozen WSPD
1/2/2006,23:00,-18.5,,0.2,217,frozen WSPD
1/3/2006,0:00,-18.5,,0.2,212,frozen WSPD
1/3/2006,1:00,-18.3,,0.2,226,frozen WSPD
1/3/2006,2:00,-17.9,,0.2,240,frozen WSPD
1/3/2006,3:00,-17.3,,0.2,18,frozen WSPD
1/3/2006,4:00,-18.2,,0.2,19,frozen WSPD
1/3/2006,5:00,-18.4,,0.2,29,frozen WSPD
1/3/2006,6:00,-18.6,,0.2,31,frozen WSPD
1/3/2006,7:00,-18.7,,0.2,24,frozen WSPD
1/3/2006,8:00,-18.7,,0.2,14,frozen WSPD
1/3/2006,9:00,-18.5,,0.2,43,frozen WSPD
1/3/2006,10:00,-18.5,,0.2,44,frozen WSPD
1/3/2006,11:00,-18.4,,0.2,50,frozen WSPD
1/3/2006,12:00,-18.3,,0.2,54,frozen WSPD
1/3/2006,13:00,-18.4,,0.2,52,frozen WSPD
1/3/2006,14:00,-18.5,,0.2,50,frozen WSPD
1/3/2006,15:00,-18.5,,0.2,52,frozen WSPD
1/3/2006,16:00,-18.4,,0.2,52,frozen WSPD
1/3/2006,17:00,-18.6,,0.2,63,frozen WSPD
1/3/2006,18:00,-19.1,,0.2,57,frozen WSPD
1/3/2006,19:00,-19.5,,0.2,82,frozen WSPD
1/3/2006,20:00,-19.8,,0.2,84,frozen WSPD
1/3/2006,21:00,-20.0,,0.2,67,frozen WSPD
1/3/2006,22:00,-20.1,,0.2,59,frozen WSPD
1/3/2006,23:00,-19.9,,0.2,52,frozen WSPD
1/4/2006,0:00,-19.6,,0.2,52,frozen WSPD
1/4/2006,1:00,-19.2,,0.2,76,frozen WSPD
1/4/2006,2:00,-18.8,,0.2,67,frozen WSPD
1/4/2006,3:00,-18.5,,0.2,78,frozen WSPD
1/4/2006,4:00,-18.5,,0.2,89,frozen WSPD
1/4/2006,5:00,-18.9,,0.2,69,frozen WSPD
1/4/2006,6:00,-20.0,,0.2,72,frozen WSPD
1/4/2006,7:00,-20.6,,0.2,76,frozen WSPD
1/4/2006,8:00,-21.5,,0.2,68,frozen WSPD
1/4/2006,9:00,-23.4,,0.2,71,frozen WSPD
1/4/2006,10:00,-23.2,,0.2,56,frozen WSPD
1/4/2006,11:00,-24.4,,0.2,58,frozen WSPD
1/4/2006,12:00,-25.1,,0.2,69,frozen WSPD
1/4/2006,13:00,-26.1,,0.2,62,frozen WSPD
1/4/2006,14:00,-28.6,,0.2,75,frozen WSPD
1/4/2006,15:00,-29.1,,0.2,81,frozen WSPD
1/4/2006,16:00,-27.8,,0.2,84,frozen WSPD
1/4/2006,17:00,-26.8,,0.2,69,frozen WSPD
1/4/2006,18:00,-27.3,,0.2,67,frozen WSPD
1/4/2006,19:00,-27.0,,0.2,67,frozen WSPD
1/4/2006,20:00,-26.7,,0.2,71,frozen WSPD
1/4/2006,21:00,-26.2,,0.2,86,frozen WSPD
1/4/2006,22:00,-26.4,,0.2,102,frozen WSPD
1/4/2006,23:00,-26.0,,0.2,83,frozen WSPD
1/5/2006,0:00,-25.6,,0.2,127,frozen WSPD
1/5/2006,1:00,-25.4,,0.2,110,frozen WSPD
1/5/2006,2:00,-25.2,,0.2,78,frozen WSPD
1/5/2006,3:00,-25.1,,0.2,86,frozen WSPD
1/5/2006,4:00,-25.1,,0.2,134,frozen WSPD
1/5/2006,5:00,-25.6,,0.2,78,frozen WSPD
1/5/2006,6:00,-27.0,,0.2,86,frozen WSPD
1/5/2006,7:00,-27.2,,0.2,45,frozen WSPD
1/5/2006,8:00,-27.9,,0.2,56,frozen WSPD
1/5/2006,9:00,-27.9,,0.2,23,frozen WSPD
1/5/2006,10:00,-27.5,,0.2,317,frozen WSPD
1/5/2006,11:00,-28.8,,0.2,295,frozen WSPD
1/5/2006,12:00,-29.9,,0.2,321,frozen WSPD
1/5/2006,13:00,-30.1,,0.2,287,frozen WSPD
1/5/2006,14:00,-29.2,,0.2,0,frozen WSPD
1/5/2006,15:00,-26.9,,0.2,46,frozen WSPD
1/5/2006,16:00,-26.0,,0.2,69,frozen WSPD
1/5/2006,17:00,-25.3,,0.2,81,frozen WSPD
1/5/2006,18:00,-25.2,,0.2,71,frozen WSPD
1/5/2006,19:00,-26.4,,0.2,72,frozen WSPD
1/5/2006,20:00,-28.1,,0.2,64,frozen WSPD
1/5/2006,21:00,-29.4,,0.2,54,frozen WSPD
1/5/2006,22:00,-29.1,,0.2,56,frozen WSPD
1/5/2006,23:00,-28.7,,0.2,68,frozen WSPD
1/6/2006,0:00,-28.2,,0.2,72,frozen WSPD
1/6/2006,1:00,-26.5,,0.2,69,frozen WSPD
1/6/2006,2:00,-25.8,,0.2,69,frozen WSPD
1/6/2006,3:00,-26.5,,0.2,79,frozen WSPD
1/6/2006,4:00,-26.2,,0.2,65,frozen WSPD
1/6/2006,5:00,-26.0,,0.2,59,frozen WSPD
1/6/2006,6:00,-25.8,,0.2,48,frozen WSPD
1/6/2006,7:00,-25.6,,0.2,48,frozen WSPD
1/6/2006,8:00,-24.9,,0.2,42,frozen WSPD
1/6/2006,9:00,-24.6,,0.2,67,frozen WSPD
1/6/2006,10:00,-24.4,,0.2,69,frozen WSPD
1/6/2006,11:00,-24.1,,0.2,72,frozen WSPD
1/6/2006,12:00,-23.8,,0.2,63,frozen WSPD
1/6/2006,13:00,-23.8,,0.2,68,frozen WSPD
1/6/2006,14:00,-23.6,,0.2,67,frozen WSPD
1/6/2006,15:00,-23.6,,0.2,65,frozen WSPD
1/6/2006,16:00,-23.4,,0.2,48,frozen WSPD
1/6/2006,17:00,-23.2,,0.2,46,frozen WSPD
1/6/2006,18:00,-23.2,,0.2,60,frozen WSPD
1/6/2006,19:00,-23.3,,0.2,49,frozen WSPD
1/6/2006,20:00,-23.4,,0.2,48,frozen WSPD
1/6/2006,21:00,-23.6,,0.2,36,frozen WSPD
1/6/2006,22:00,-23.8,,0.2,41,frozen WSPD
1/6/2006,23:00,-23.9,,0.2,39,frozen WSPD
1/7/2006,0:00,-24.1,,0.2,46,frozen WSPD
1/7/2006,1:00,-24.2,,0.2,43,frozen WSPD
1/7/2006,2:00,-24.2,,0.2,61,frozen WSPD
1/7/2006,3:00,-24.2,,0.2,53,frozen WSPD
1/7/2006,4:00,-24.1,,0.2,59,frozen WSPD
1/7/2006,5:00,-24.1,,0.2,58,frozen WSPD
1/7/2006,6:00,-24.0,,0.2,61,frozen WSPD
1/7/2006,7:00,-24.0,,0.2,67,frozen WSPD
1/7/2006,8:00,-23.9,,0.2,70,frozen WSPD
1/7/2006,9:00,-23.8,,0.2,55,frozen WSPD
1/7/2006,10:00,-23.7,,0.2,41,frozen WSPD
1/7/2006,11:00,-23.6,,0.2,21,frozen WSPD
1/7/2006,12:00,-23.9,,0.2,29,frozen WSPD
1/7/2006,13:00,-24.7,,0.2,46,frozen WSPD
1/7/2006,14:00,-25.0,,0.2,16,frozen WSPD
1/7/2006,15:00,-25.8,,0.2,34,frozen WSPD
1/7/2006,16:00,-26.6,,0.2,349,frozen WSPD
1/7/2006,17:00,-27.1,,0.2,3,frozen WSPD
1/7/2006,18:00,-28.0,,0.2,44,frozen WSPD
1/7/2006,19:00,-30.0,,0.2,336,frozen WSPD
1/7/2006,20:00,-31.4,,0.2,274,frozen WSPD
1/7/2006,21:00,-31.4,,0.2,353,frozen WSPD
1/7/2006,22:00,-31.3,,0.2,321,frozen WSPD
1/7/2006,23:00,-31.5,,0.2,354,frozen WSPD
1/8/2006,0:00,-31.2,,0.2,292,frozen WSPD
1/8/2006,1:00,-31.1,,0.2,274,frozen WSPD
1/8/2006,2:00,-31.5,,0.2,354,frozen WSPD
1/8/2006,3:00,-32.0,,0.2,275,frozen WSPD
1/8/2006,4:00,-32.3,,0.2,267,frozen WSPD
1/8/2006,5:00,-32.2,,0.2,265,frozen WSPD
1/8/2006,6:00,-32.2,,0.2,265,frozen WSPD
1/8/2006,7:00,-32.2,,0.2,264,frozen WSPD
1/8/2006,8:00,-33.1,,0.2,264,frozen WSPD
1/8/2006,9:00,-32.4,,0.2,264,frozen WSPD
1/8/2006,10:00,-31.6,,0.2,264,frozen WSPD
1/8/2006,11:00,-31.8,,0.2,264,frozen WSPD
1/8/2006,12:00,-31.3,,0.2,264,frozen WSPD
1/8/2006,13:00,-30.7,,0.2,263,frozen WSPD
1/8/2006,14:00,-30.9,,0.2,232,frozen WSPD
1/8/2006,15:00,-31.3,,0.2,199,frozen WSPD
1/8/2006,16:00,-32.5,,0.2,221,frozen WSPD
1/8/2006,17:00,-34.3,,0.2,221,frozen WSPD
1/8/2006,18:00,-33.6,,0.2,209,frozen WSPD
1/8/2006,19:00,-35.1,,0.2,221,frozen WSPD
1/8/2006,20:00,-34.5,,0.2,218,frozen WSPD
1/8/2006,21:00,-36.4,,0.2,216,frozen WSPD
1/8/2006,22:00,-36.4,,0.2,227,frozen WSPD
1/8/2006,23:00,-36.3,,0.2,200,frozen WSPD
1/9/2006,0:00,-37.7,,0.2,218,frozen WSPD
1/9/2006,1:00,-37.1,,0.2,206,frozen WSPD
1/9/2006,2:00,-36.9,,0.2,185,frozen WSPD
1/9/2006,3:00,-37.8,,0.2,204,frozen WSPD
1/9/2006,4:00,-38.5,,0.2,221,frozen WSPD
1/9/2006,5:00,-38.7,,0.2,194,frozen WSPD
1/9/2006,6:00,-39.3,,0.2,197,frozen WSPD
1/9/2006,7:00,-39.1,,0.2,206,frozen WSPD
1/9/2006,8:00,-39.9,,0.2,202,frozen WSPD
1/9/2006,9:00,-39.5,,0.2,197,frozen WSPD
1/9/2006,10:00,-38.4,,0.2,209,frozen WSPD
1/9/2006,11:00,-38.7,,0.2,184,frozen WSPD
1/9/2006,12:00,-39.5,,0.2,196,frozen WSPD
1/9/2006,13:00,-40.0,,0.2,198,frozen WSPD
1/9/2006,14:00,-38.4,,0.2,213,frozen WSPD
1/9/2006,15:00,-39.3,,0.2,186,frozen WSPD
1/9/2006,16:00,-38.5,,0.2,209,frozen WSPD
1/9/2006,17:00,-38.9,,0.2,200,frozen WSPD
1/9/2006,18:00,-38.9,,0.2,221,frozen WSPD
1/9/2006,19:00,-38.2,,0.2,198,frozen WSPD
1/9/2006,20:00,-38.5,,0.2,225,frozen WSPD
1/9/2006,21:00,-38.1,,0.2,210,frozen WSPD
1/9/2006,22:00,-36.4,,0.2,228,frozen WSPD
1/9/2006,23:00,-35.0,,0.2,207,frozen WSPD
1/10/2006,0:00,-33.8,,0.2,198,frozen WSPD
1/10/2006,1:00,-32.5,,0.2,204,frozen WSPD
1/10/2006,2:00,-31.0,,0.2,217,frozen WSPD
1/10/2006,3:00,-29.8,,0.2,225,frozen WSPD
1/10/2006,4:00,-28.8,,0.2,207,frozen WSPD
1/10/2006,5:00,-28.1,,0.2,214,frozen WSPD
1/10/2006,6:00,-28.1,,0.2,209,frozen WSPD
1/10/2006,7:00,-27.8,,0.2,201,frozen WSPD
1/10/2006,8:00,-27.2,,0.2,210,frozen WSPD
1/10/2006,9:00,-27.0,,0.2,216,frozen WSPD
1/10/2006,10:00,-26.7,,0.2,214,frozen WSPD
1/10/2006,11:00,-26.2,,0.2,217,frozen WSPD
1/10/2006,12:00,-25.7,,0.2,192,frozen WSPD
1/10/2006,13:00,-25.3,,0.2,202,frozen WSPD
1/10/2006,14:00,-25.1,,0.2,183,frozen WSPD
1/10/2006,15:00,-24.6,,0.2,203,frozen WSPD
1/10/2006,16:00,-24.5,,0.2,173,frozen WSPD
1/10/2006,17:00,-24.4,,0.2,189,frozen WSPD
1/10/2006,18:00,-24.5,,0.2,207,frozen WSPD
1/10/2006,19:00,-24.6,,0.2,168,frozen WSPD
1/10/2006,20:00,-24.9,,0.2,185,frozen WSPD
1/10/2006,21:00,-24.8,,0.2,202,frozen WSPD
1/10/2006,22:00,-24.8,,0.2,200,frozen WSPD
1/10/2006,23:00,-24.6,,0.2,203,frozen WSPD
1/11/2006,0:00,-24.5,,0.2,200,frozen WSPD
1/11/2006,1:00,-24.4,,0.2,205,frozen WSPD
1/11/2006,2:00,-24.4,,0.2,216,frozen WSPD
1/11/2006,3:00,-24.7,,0.2,247,frozen WSPD
1/11/2006,4:00,-25.2,,0.2,206,frozen WSPD
1/11/2006,5:00,-26.0,,0.2,233,frozen WSPD
1/11/2006,6:00,-27.1,,0.2,213,frozen WSPD
1/11/2006,7:00,-26.6,,0.2,203,frozen WSPD
1/11/2006,8:00,-27.3,,0.2,204,frozen WSPD
1/11/2006,9:00,-27.2,,0.2,210,frozen WSPD
1/11/2006,10:00,-27.4,,0.2,201,frozen WSPD
1/11/2006,11:00,-27.2,,0.2,204,frozen WSPD
1/11/2006,12:00,-27.3,,0.2,229,frozen WSPD
1/11/2006,13:00,-28.5,,0.2,195,frozen WSPD
1/11/2006,14:00,-28.9,,0.2,196,frozen WSPD
1/11/2006,15:00,-29.7,,0.2,198,frozen WSPD
1/11/2006,16:00,-30.6,,0.2,219,frozen WSPD
1/11/2006,17:00,-31.2,,0.2,224,frozen WSPD
1/11/2006,18:00,-31.0,,0.2,204,frozen WSPD
1/11/2006,19:00,-31.0,,0.2,225,frozen WSPD
1/11/2006,20:00,-31.3,,0.2,229,frozen WSPD
1/11/2006,21:00,-30.9,,0.2,213,frozen WSPD
1/11/2006,22:00,-31.7,,0.2,172,frozen WSPD
1/11/2006,23:00,-33.2,,0.2,228,frozen WSPD
1/12/2006,0:00,-31.8,,0.2,201,frozen WSPD
1/12/2006,1:00,-32.9,,0.2,202,frozen WSPD
1/12/2006,2:00,-34.3,,0.2,217,frozen WSPD
1/12/2006,3:00,-33.5,,0.2,228,frozen WSPD
1/12/2006,4:00,-34.0,,0.2,188,frozen WSPD
1/12/2006,5:00,-32.9,,0.2,187,frozen WSPD
1/12/2006,6:00,-31.0,,0.2,210,frozen WSPD
1/12/2006,7:00,-30.0,,0.2,153,frozen WSPD
1/12/2006,8:00,-29.5,,0.2,202,frozen WSPD
1/12/2006,9:00,-28.6,,0.2,200,frozen WSPD
1/12/2006,10:00,-27.9,,0.2,231,frozen WSPD
1/12/2006,11:00,-27.4,,0.2,118,frozen WSPD
1/12/2006,12:00,-25.1,,0.2,115,frozen WSPD
1/12/2006,13:00,-27.3,,0.2,160,frozen WSPD
1/12/2006,14:00,-26.7,,0.2,184,frozen WSPD
1/12/2006,15:00,-25.6,,0.2,145,frozen WSPD
1/12/2006,16:00,-24.6,,0.2,122,frozen WSPD
1/12/2006,17:00,-23.9,,0.2,66,frozen WSPD
1/12/2006,18:00,-23.5,,0.2,65,frozen WSPD
1/12/2006,19:00,-23.2,,0.2,61,frozen WSPD
1/12/2006,20:00,-23.0,,0.2,129,frozen WSPD
1/12/2006,21:00,-23.1,,0.2,189,frozen WSPD
1/12/2006,22:00,-22.9,,0.2,146,frozen WSPD
1/12/2006,23:00,-22.4,,0.2,139,frozen WSPD
1/13/2006,0:00,-21.6,,0.2,136,frozen WSPD
1/13/2006,1:00,-22.5,,0.2,170,frozen WSPD
1/13/2006,2:00,-22.5,,0.2,167,frozen WSPD
1/13/2006,3:00,-22.1,,0.2,203,frozen WSPD
1/13/2006,4:00,-22.6,,0.2,105,frozen WSPD
1/13/2006,5:00,-22.1,,0.2,103,frozen WSPD
1/13/2006,6:00,-22.7,,0.2,198,frozen WSPD
1/13/2006,7:00,-24.3,,0.2,231,frozen WSPD
1/13/2006,8:00,-24.5,,0.2,218,frozen WSPD
1/13/2006,9:00,-24.7,,0.2,235,frozen WSPD
1/13/2006,10:00,-24.3,,0.2,238,frozen WSPD
1/13/2006,11:00,-24.5,,0.2,230,frozen WSPD
1/13/2006,12:00,-24.7,,0.2,222,frozen WSPD
1/13/2006,13:00,-25.1,,0.2,218,frozen WSPD
1/13/2006,14:00,-25.4,,0.2,220,frozen WSPD
1/13/2006,15:00,-25.3,,0.2,191,frozen WSPD
1/13/2006,16:00,-25.8,,0.2,187,frozen WSPD
1/13/2006,17:00,-25.9,,0.2,187,frozen WSPD
1/13/2006,18:00,-27.3,,0.2,162,frozen WSPD
1/13/2006,19:00,-28.0,,0.2,183,frozen WSPD
1/13/2006,20:00,-29.9,,0.2,221,frozen WSPD
1/13/2006,21:00,-29.7,,0.2,206,frozen WSPD
1/13/2006,22:00,-29.7,,0.2,194,frozen WSPD
1/13/2006,23:00,-29.9,,0.2,198,frozen WSPD
1/14/2006,0:00,-31.0,,0.2,188,frozen WSPD
1/14/2006,1:00,-31.6,,0.2,201,frozen WSPD
1/14/2006,2:00,-32.3,,0.2,204,frozen WSPD
1/14/2006,3:00,-33.5,,0.2,183,frozen WSPD
1/14/2006,4:00,-32.9,,0.2,208,frozen WSPD
1/14/2006,5:00,-31.9,,0.2,222,frozen WSPD
1/14/2006,6:00,-30.9,,0.2,203,frozen WSPD
1/14/2006,7:00,-29.7,,0.2,207,frozen WSPD
1/14/2006,8:00,-28.9,,0.2,216,frozen WSPD
1/14/2006,9:00,-28.4,,0.2,224,frozen WSPD
1/14/2006,10:00,-28.3,,0.2,222,frozen WSPD
1/14/2006,11:00,-28.2,,0.2,218,frozen WSPD
1/14/2006,12:00,-28.2,,0.2,201,frozen WSPD
1/14/2006,13:00,-28.3,,0.2,213,frozen WSPD
1/14/2006,14:00,-28.2,,0.2,211,frozen WSPD
1/14/2006,15:00,-28.4,,0.2,231,frozen WSPD
1/14/2006,16:00,-28.1,,0.2,216,frozen WSPD
1/14/2006,17:00,-28.1,,0.2,224,frozen WSPD
1/14/2006,18:00,-28.1,,0.2,197,frozen WSPD
1/14/2006,19:00,-27.9,,0.2,233,frozen WSPD
1/14/2006,20:00,-27.7,,0.2,206,frozen WSPD
1/14/2006,21:00,-27.3,,0.2,201,frozen WSPD
1/14/2006,22:00,-26.9,,0.2,205,frozen WSPD
1/14/2006,23:00,-26.5,,0.2,220,frozen WSPD
1/15/2006,0:00,-26.2,,0.2,212,frozen WSPD
1/15/2006,1:00,-25.8,,0.2,193,frozen WSPD
1/15/2006,2:00,-25.2,,0.2,159,frozen WSPD
1/15/2006,3:00,-24.5,,0.2,155,frozen WSPD
1/15/2006,4:00,-24.2,,0.2,144,frozen WSPD
1/15/2006,5:00,-23.9,,0.2,172,frozen WSPD
1/15/2006,6:00,-23.7,,0.2,194,frozen WSPD
1/15/2006,7:00,-22.8,,0.2,250,frozen WSPD
1/15/2006,8:00,-22.7,,0.2,228,frozen WSPD
1/15/2006,9:00,-22.8,,0.2,185,frozen WSPD
1/15/2006,10:00,-22.7,,0.2,160,frozen WSPD
1/15/2006,11:00,-22.4,,0.2,186,frozen WSPD
1/15/2006,12:00,-22.6,,0.2,237,frozen WSPD
1/15/2006,13:00,-23.2,,0.2,205,frozen WSPD
1/15/2006,14:00,-23.5,,0.2,167,frozen WSPD
1/15/2006,15:00,-23.8,,0.2,200,frozen WSPD
1/15/2006,16:00,-24.1,,0.2,182,frozen WSPD
1/15/2006,17:00,-24.8,,0.2,186,frozen WSPD
1/15/2006,18:00,-25.9,,0.2,163,frozen WSPD
1/15/2006,19:00,-27.2,,0.2,149,frozen WSPD
1/15/2006,20:00,-28.4,,0.2,149,frozen WSPD
1/15/2006,21:00,-29.2,,0.2,127,frozen WSPD
1/15/2006,22:00,-29.6,,0.2,283,frozen WSPD
1/15/2006,23:00,-28.9,,0.2,149,frozen WSPD
1/16/2006,0:00,-28.4,,0.2,165,frozen WSPD
1/16/2006,1:00,-28.2,,0.2,142,frozen WSPD
1/16/2006,2:00,-29.0,,0.2,279,frozen WSPD
1/16/2006,3:00,-28.4,,0.2,293,frozen WSPD
1/16/2006,4:00,-28.0,,0.2,303,frozen WSPD
1/16/2006,5:00,-29.3,,0.2,180,frozen WSPD
1/16/2006,6:00,-29.4,,0.2,158,frozen WSPD
1/16/2006,7:00,-29.3,,0.2,170,frozen WSPD
1/16/2006,8:00,-28.1,,0.2,176,frozen WSPD
1/16/2006,9:00,-26.5,,0.2,173,frozen WSPD
1/16/2006,10:00,-25.8,,0.2,169,frozen WSPD
1/16/2006,11:00,-25.3,,0.2,180,frozen WSPD
1/16/2006,12:00,-25.5,,0.2,166,frozen WSPD
1/16/2006,13:00,-24.6,,0.2,175,frozen WSPD
1/16/2006,14:00,-24.1,,0.2,189,frozen WSPD
1/16/2006,15:00,-23.7,,0.2,178,frozen WSPD
1/16/2006,16:00,-23.4,,0.2,175,frozen WSPD
1/16/2006,17:00,-23.4,,0.2,190,frozen WSPD
1/16/2006,18:00,-23.4,,0.2,191,frozen WSPD
1/16/2006,19:00,-23.2,,0.2,187,frozen WSPD
1/16/2006,20:00,-22.8,,0.2,186,frozen WSPD
1/16/2006,21:00,-22.4,,0.2,190,frozen WSPD
1/16/2006,22:00,-22.3,,0.2,191,frozen WSPD
1/16/2006,23:00,-22.0,,0.2,184,frozen WSPD
1/17/2006,0:00,-21.9,,0.2,186,frozen WSPD
1/17/2006,1:00,-21.7,,0.2,181,frozen WSPD
1/17/2006,2:00,-21.4,,0.2,188,frozen WSPD
1/17/2006,3:00,-21.1,,0.2,188,frozen WSPD
1/17/2006,4:00,-21.0,,0.2,235,frozen WSPD
1/17/2006,5:00,-20.7,,0.2,236,frozen WSPD
1/17/2006,6:00,-20.4,,0.2,232,frozen WSPD
1/17/2006,7:00,-20.3,,0.2,218,frozen WSPD
1/17/2006,8:00,-20.4,,0.2,247,frozen WSPD
1/17/2006,9:00,-20.1,,0.2,235,frozen WSPD
1/17/2006,10:00,-20.4,,0.2,216,frozen WSPD
1/17/2006,11:00,-20.4,,0.2,234,frozen WSPD
1/17/2006,12:00,-21.3,,0.2,207,frozen WSPD
1/17/2006,13:00,-23.3,,0.2,232,frozen WSPD
1/17/2006,14:00,-23.2,,0.2,220,frozen WSPD
1/17/2006,15:00,-22.4,,0.2,240,frozen WSPD
1/17/2006,16:00,-21.9,,0.2,226,frozen WSPD
1/17/2006,17:00,-21.6,,0.2,201,frozen WSPD
1/17/2006,18:00,-22.2,,0.2,196,frozen WSPD
1/17/2006,19:00,-23.1,,0.2,209,frozen WSPD
1/17/2006,20:00,-24.8,,0.2,187,frozen WSPD
1/17/2006,21:00,-26.4,,0.2,189,frozen WSPD
1/17/2006,22:00,-26.1,,0.2,188,frozen WSPD
1/17/2006,23:00,-25.2,,0.2,183,frozen WSPD
1/18/2006,0:00,-24.3,,0.2,187,frozen WSPD
1/18/2006,1:00,-23.4,,0.2,196,frozen WSPD
1/18/2006,2:00,-22.3,,0.2,217,frozen WSPD
1/18/2006,3:00,-22.2,,0.2,200,frozen WSPD
1/18/2006,4:00,-23.0,,0.2,212,frozen WSPD
1/18/2006,5:00,-22.7,,0.2,226,frozen WSPD
1/18/2006,6:00,-22.3,,0.2,220,frozen WSPD
1/18/2006,7:00,-22.0,,0.2,184,frozen WSPD
1/18/2006,8:00,-21.9,,0.2,198,frozen WSPD
1/18/2006,9:00,-22.0,,0.2,166,frozen WSPD
1/18/2006,10:00,-22.1,,0.2,195,frozen WSPD
1/18/2006,11:00,-22.0,,0.2,191,frozen WSPD
1/18/2006,12:00,-21.9,,0.2,198,frozen WSPD
1/18/2006,13:00,-22.0,,0.2,199,frozen WSPD
1/18/2006,14:00,-21.9,,0.2,201,frozen WSPD
1/18/2006,15:00,-21.5,,0.2,221,frozen WSPD
1/18/2006,16:00,-21.3,,0.2,176,frozen WSPD
1/18/2006,17:00,-21.2,,0.2,213,frozen WSPD
1/18/2006,18:00,-20.8,,0.2,195,frozen WSPD
1/18/2006,19:00,-21.0,,0.2,199,frozen WSPD
1/18/2006,20:00,-22.6,,0.2,200,frozen WSPD
1/18/2006,21:00,-24.0,,0.2,216,frozen WSPD
1/18/2006,22:00,-24.8,,0.2,200,frozen WSPD
1/18/2006,23:00,-25.9,,0.2,197,frozen WSPD
1/19/2006,0:00,-26.0,,0.2,216,frozen WSPD
1/19/2006,1:00,-25.8,,0.2,206,frozen WSPD
1/19/2006,2:00,-25.8,,0.2,222,frozen WSPD
1/19/2006,3:00,-25.8,,0.2,257,frozen WSPD
1/19/2006,4:00,-26.3,,0.2,270,frozen WSPD
1/19/2006,5:00,-27.1,,0.2,258,frozen WSPD
1/19/2006,6:00,-27.9,,0.2,265,frozen WSPD
1/19/2006,7:00,-28.3,,0.2,254,frozen WSPD
1/19/2006,8:00,-29.0,,0.2,251,frozen WSPD
1/19/2006,9:00,-29.3,,0.2,247,frozen WSPD
1/19/2006,10:00,-29.8,,0.2,255,frozen WSPD
1/19/2006,11:00,-30.0,,0.2,251,frozen WSPD
1/19/2006,12:00,-30.2,,0.2,253,frozen WSPD
1/19/2006,13:00,-29.9,,0.2,243,frozen WSPD
1/19/2006,14:00,-29.7,,0.2,249,frozen WSPD
1/19/2006,15:00,-29.7,,0.2,264,frozen WSPD
1/19/2006,16:00,-30.1,,0.2,248,frozen WSPD
1/19/2006,17:00,-29.7,,0.2,237,frozen WSPD
1/19/2006,18:00,-29.2,,0.2,259,frozen WSPD
1/19/2006,19:00,-28.9,,0.2,263,frozen WSPD
1/19/2006,20:00,-29.0,,0.2,264,frozen WSPD
1/19/2006,21:00,-28.7,,0.2,258,frozen WSPD
1/19/2006,22:00,-28.4,,0.2,265,frozen WSPD
1/19/2006,23:00,-28.6,,0.2,257,frozen WSPD
1/20/2006,0:00,-29.4,,0.2,256,frozen WSPD
1/20/2006,1:00,-28.8,,0.2,255,frozen WSPD
1/20/2006,2:00,-28.9,,0.2,240,frozen WSPD
1/20/2006,3:00,-29.1,,0.2,245,frozen WSPD
1/20/2006,4:00,-29.3,,0.2,242,frozen WSPD
1/20/2006,5:00,-29.1,,0.2,244,frozen WSPD
1/20/2006,6:00,-29.4,,0.2,234,frozen WSPD
1/20/2006,7:00,-29.8,,0.2,247,frozen WSPD
1/20/2006,8:00,-30.1,,0.2,252,frozen WSPD
1/20/2006,9:00,-30.3,,0.2,255,frozen WSPD
1/20/2006,10:00,-31.4,,0.2,249,frozen WSPD
1/20/2006,11:00,-31.2,,0.2,247,frozen WSPD
1/20/2006,12:00,-30.4,,0.2,251,frozen WSPD
1/20/2006,13:00,-31.2,,0.2,256,frozen WSPD
1/20/2006,14:00,-32.0,,0.2,234,frozen WSPD
1/20/2006,15:00,-33.0,,0.2,242,frozen WSPD
1/20/2006,16:00,-33.7,,0.2,245,frozen WSPD
1/20/2006,17:00,-34.7,,0.2,242,frozen WSPD
1/20/2006,18:00,-35.1,,0.2,233,frozen WSPD
1/20/2006,19:00,-34.9,,0.2,243,frozen WSPD
1/20/2006,20:00,-35.3,,0.2,236,frozen WSPD
1/20/2006,21:00,-36.1,,0.2,236,frozen WSPD
1/20/2006,22:00,-36.0,,0.2,247,frozen WSPD
1/20/2006,23:00,-35.3,,0.2,240,frozen WSPD
1/21/2006,0:00,-36.3,,0.2,238,frozen WSPD
1/21/2006,1:00,-36.1,,0.2,244,frozen WSPD
1/21/2006,2:00,-36.3,,0.2,242,frozen WSPD
1/21/2006,3:00,-37.4,,0.2,235,frozen WSPD
1/21/2006,4:00,-37.0,,0.2,227,frozen WSPD
1/21/2006,5:00,-38.0,,0.2,220,frozen WSPD
1/21/2006,6:00,-37.3,,0.2,251,frozen WSPD
1/21/2006,7:00,-37.6,,0.2,240,frozen WSPD
1/21/2006,8:00,-38.2,,0.2,247,frozen WSPD
1/21/2006,9:00,-37.8,,0.2,235,frozen WSPD
1/21/2006,10:00,-38.4,,0.2,246,frozen WSPD
1/21/2006,11:00,-38.9,,0.2,236,frozen WSPD
1/21/2006,12:00,-39.2,,0.2,217,frozen WSPD
1/21/2006,13:00,-39.6,,0.2,233,frozen WSPD
1/21/2006,14:00,-38.4,,0.2,246,frozen WSPD
1/21/2006,15:00,-38.1,,0.2,235,frozen WSPD
1/21/2006,16:00,-38.4,,0.2,240,frozen WSPD
1/21/2006,17:00,-39.2,,0.2,228,frozen WSPD
1/21/2006,18:00,-38.4,,0.2,239,frozen WSPD
1/21/2006,19:00,-37.9,,0.2,230,frozen WSPD
1/21/2006,20:00,-38.2,,0.2,237,frozen WSPD
1/21/2006,21:00,-38.2,,0.2,233,frozen WSPD
1/21/2006,22:00,-37.2,,0.2,242,frozen WSPD
1/21/2006,23:00,-37.4,,0.2,229,frozen WSPD
1/22/2006,0:00,-36.6,,0.2,241,frozen WSPD
1/22/2006,1:00,-36.5,,0.2,237,frozen WSPD
1/22/2006,2:00,-35.3,,0.2,240,frozen WSPD
1/22/2006,3:00,-34.7,,0.2,234,frozen WSPD
1/22/2006,4:00,-33.5,,0.2,239,frozen WSPD
1/22/2006,5:00,-32.7,,0.2,233,frozen WSPD
1/22/2006,6:00,-32.3,,0.2,233,frozen WSPD
1/22/2006,7:00,-31.0,,0.2,227,frozen WSPD
1/22/2006,8:00,-29.1,,0.2,248,frozen WSPD
1/22/2006,9:00,-28.7,,0.2,244,frozen WSPD
1/22/2006,10:00,-27.9,,0.2,245,frozen WSPD
1/22/2006,11:00,-26.8,,0.2,255,frozen WSPD
1/22/2006,12:00,-25.6,,0.2,264,frozen WSPD
1/22/2006,13:00,-24.5,,0.2,257,frozen WSPD
1/22/2006,14:00,-23.6,,0.2,264,frozen WSPD
1/22/2006,15:00,-22.7,,0.2,255,frozen WSPD
1/22/2006,16:00,-21.7,,0.2,265,frozen WSPD
1/22/2006,17:00,-21.3,,0.2,262,frozen WSPD
1/22/2006,18:00,-21.4,,0.2,261,frozen WSPD
1/22/2006,19:00,-21.0,,0.2,273,frozen WSPD
1/22/2006,20:00,-20.5,,0.2,270,frozen WSPD
1/22/2006,21:00,-20.9,,0.2,280,frozen WSPD
1/22/2006,22:00,-21.0,,0.2,286,frozen WSPD
1/22/2006,23:00,-21.0,,0.2,269,frozen WSPD
1/23/2006,0:00,-21.4,,18.4,300,
1/23/2006,1:00,-21.4,,16.4,271,
1/23/2006,2:00,-21.4,,17.5,280,
1/23/2006,3:00,-21.7,,22.8,270,
1/23/2006,4:00,-22.3,,24.1,269,
1/23/2006,5:00,-22.7,,23.0,265,
1/23/2006,6:00,-23.2,,19.5,287,
1/23/2006,7:00,-24.1,,27.0,273,
1/23/2006,8:00,-24.7,,25.4,268,
1/23/2006,9:00,-25.0,,22.4,269,
1/23/2006,10:00,-25.0,,18.4,276,
1/23/2006,11:00,-24.7,,23.2,266,
1/23/2006,12:00,-24.7,,17.1,265,
1/23/2006,13:00,-25.0,,22.4,266,
1/23/2006,14:00,-25.1,,23.2,268
1/23/2006,15:00,-24.8,,18.9,266
1/23/2006,16:00,-25.0,,25.2,258
1/23/2006,17:00,-25.3,,27.2,266
1/23/2006,18:00,-25.4,,25.2,269
1/23/2006,19:00,-25.9,,25.7,265
1/23/2006,20:00,-26.4,,23.9,267
1/23/2006,21:00,-26.7,,26.1,274
1/23/2006,22:00,-27.1,,25.2,277
1/23/2006,23:00,-27.4,,18.0,273
1/24/2006,0:00,-27.7,,18.6,281
1/24/2006,1:00,-27.7,,19.7,278
1/24/2006,2:00,-27.8,,25.4,276
1/24/2006,3:00,-28.0,,19.3,278
1/24/2006,4:00,-28.1,,18.4,281
1/24/2006,5:00,-28.3,,15.6,269
1/24/2006,6:00,-29.1,,14.9,266
1/24/2006,7:00,-28.9,,18.9,265
1/24/2006,8:00,-29.0,,20.2,264
1/24/2006,9:00,-29.0,,20.6,271
1/24/2006,10:00,-29.1,,18.9,263
1/24/2006,11:00,-29.8,,16.2,257
1/24/2006,12:00,-30.5,,14.0,258
1/24/2006,13:00,-30.7,,15.3,268